This is the latest recevied weather packets stored in our database for station/object WB5CFT. If no packets are shown the sender has not sent any weather packets the latest 10 day(s).
| Time | Temp. | Humidity | Pressure | Rain* | Wind** | Luminosity | Snow |
|---|---|---|---|---|---|---|---|
| 1777846423 | 24.44° C | 40% | 1016.3 hPa | 0 mm | - | 527 W/m² | - |
| 1777846118 | 24.44° C | 41% | 1016.6 hPa | 0 mm | - | 497 W/m² | - |
| 1777845816 | 24.44° C | 41% | 1016.3 hPa | 0 mm | - | 338 W/m² | - |
| 1777845512 | 24.44° C | 42% | 1016.7 hPa | 0 mm | - | 394 W/m² | - |
| 1777845209 | 23.89° C | 41% | 1016.8 hPa | 0 mm | - | 548 W/m² | - |
| 1777844907 | 23.89° C | 42% | 1016.9 hPa | 0 mm | - | 514 W/m² | - |
| 1777844605 | 23.89° C | 41% | 1017 hPa | 0 mm | - | 525 W/m² | - |
| 1777844301 | 23.33° C | 42% | 1017.1 hPa | 0 mm | - | 329 W/m² | - |
| 1777843999 | 23.33° C | 42% | 1017.4 hPa | 0 mm | - | 251 W/m² | - |
| 1777843696 | 23.33° C | 43% | 1017.2 hPa | 0 mm | - | 224 W/m² | - |
| 1777843394 | 23.33° C | 42% | 1017.4 hPa | 0 mm | - | 229 W/m² | - |
| 1777843091 | 23.33° C | 42% | 1017.7 hPa | 0 mm | - | 222 W/m² | - |
| 1777842788 | 23.33° C | 43% | 1017.9 hPa | 0 mm | - | 203 W/m² | - |
| 1777842487 | 23.89° C | 42% | 1017.9 hPa | 0 mm | - | 224 W/m² | - |
| 1777842185 | 23.33° C | 42% | 1018.1 hPa | 0 mm | - | 459 W/m² | - |
| 1777841880 | 23.33° C | 42% | 1017.8 hPa | 0 mm | - | 679 W/m² | - |
| 1777841577 | 23.33° C | 42% | 1018.1 hPa | 0 mm | - | 634 W/m² | - |
| 1777841273 | 23.33° C | 43% | 1018.4 hPa | 0 mm | - | 635 W/m² | - |
| 1777840971 | 23.33° C | 42% | 1018.4 hPa | 0 mm | - | 481 W/m² | - |
| 1777840668 | 22.78° C | 42% | 1018.3 hPa | 0 mm | - | 325 W/m² | - |
| 1777840365 | 22.78° C | 42% | 1018.6 hPa | 0 mm | - | 602 W/m² | - |
| 1777840062 | 22.78° C | 42% | 1018.6 hPa | 0 mm | - | 602 W/m² | - |
| 1777839760 | 23.33° C | 42% | 1018.7 hPa | 0 mm | - | 439 W/m² | - |
| 1777839458 | 22.78° C | 43% | 1018.6 hPa | 0 mm | - | 497 W/m² | - |
| 1777839155 | 22.78° C | 43% | 1018.9 hPa | 0 mm | - | 477 W/m² | - |
* Rain latest hour (hover to see other rain measurements)
** Current wind speed in m/s (hover to see current wind gust speed)